[[{"header":{"parameterUnit":"m.s-1","parameterCategory":2,"la1":30.2991,"la2":30.254,"lo1":-89.0895,"lo2":-89.0444,"dy":0.0017,"dx":0.0017,"nx":28,"ny":28,"refTime":"2024-07-12T03:00:00:Z","depth":"0","parameterNumber":2,"parameterNumberName":"U-component_of_CURRENTS"},"data":[0,0,0,0,0,0,0,0,0,0,0,0,0,0,0,0,0,0,0,0,0,0,0,0,0,0,0,0,0,0,0,0,0,0,0,0,0,0,0,0,0,0,0,0,0,0,0,0,0,0,0,0,0,0,0,0,0,0,0.2997,0.2999,0,0.3046,0.3046,0.3045,0.3016,0.3015,0.3015,0.3015,0.302,0.302,0.3021,0,0,0,0,0,0,0,0,0,0,0,0,0,0.2748,0.2753,0.2997,0.2999,0.3001,0.3046,0.3046,0.3045,0.3016,0.3015,0.3015,0.3015,0.302,0.302,0.3021,0,0,0,0,0,0,0,0,0,0,0,0,0,0.2822,0.2754,0.2997,0.3,0.3002,0.3046,0.3046,0.3045,0.3016,0.3015,0.3015,0.3014,0.302,0.302,0.3021,0.3035,0,0,0.3023,0.3023,0,0,0,0,0,0,0,0,0.2818,0.2829,0.2998,0.3,0.3002,0.3035,0.2961,0.3044,0.3016,0.2998,0.3015,0.3014,0.3029,0.3029,0.3023,0.3035,0.3036,0.3023,0.3023,0.3024,0.3024,0,0,0,0,0,0,0,0.2813,0.2827,0.3005,0.3,0.3003,0.2955,0.2965,0.2975,0.3006,0.3,0.3001,0.3025,0.3028,0.3022,0.3023,0.3036,0.3023,0.3024,0.3024,0.3024,0.3057,0.3058,0,0,0,0,0,0,0.2839,0.2823,0.3003,0.3007,0.292,0.2962,0.2972,0.3015,0.3007,0.3009,0.3025,0.3024,0.3021,0.3022,0.3023,0.3018,0.3024,0.3024,0.3025,0.3057,0.3058,0.3058,0,0,0,0,0,0,0.2834,0.2855,0.3001,0.2923,0.294,0.2969,0.3016,0.3017,0.301,0.3029,0.3027,0.3019,0.3021,0.3022,0.3013,0.3019,0.3025,0.3025,0.3056,0.3057,0.3058,0.3022,0,0,0,0,0,0,0.2827,0.2853,0.2886,0.2927,0.2947,0.3014,0.3018,0.3018,0.3032,0.3029,0.3024,0.3023,0.3021,0.3012,0.3013,0.302,0.3026,0.3056,0.3057,0.3058,0.3023,0.3022,0.3021,0,0,0,0,0,0.2818,0.2868,0.2888,0.2909,0.2994,0.3015,0.3018,0.3027,0.3032,0.3019,0.3013,0.3023,0.302,0.3012,0.3014,0.3021,0.3055,0.3056,0.3057,0.3023,0.3022,0.3021,0,0,0,0,0,0,0.2763,0.2873,0.2894,0.2972,0.2987,0.3014,0.3018,0.3029,0.3015,0.3014,0.3017,0.3016,0.3013,0.3026,0.3017,0.3037,0.3045,0.3047,0.3019,0.3017,0.3016,0.3031,0.3026,0,0,0,0,0,0.2776,0.2849,0.2908,0.2962,0.2972,0.2993,0.3005,0.3013,0.3019,0.3012,0.3007,0.3014,0.3021,0.3024,0.3026,0.3033,0.3056,0.3045,0.3044,0.3043,0.3058,0.3092,0.3095,0.3062,0.3062,0.3061,0,0,0.2766,0.284,0.2877,0.2955,0.2966,0.2971,0.2993,0.3011,0.3015,0.3018,0.3001,0.3004,0.3021,0.3019,0.3022,0.3029,0.3061,0.3044,0.3043,0.3059,0.3093,0.3096,0.3099,0.3062,0.3062,0.3062,0,0,0.2768,0.2844,0.2888,0.2897,0.2942,0.2961,0.2967,0.2987,0.2991,0.2994,0.2994,0.3003,0.3007,0.3017,0.3028,0.3031,0.305,0.3033,0.304,0.3072,0.3075,0.3078,0.3091,0.3096,0.3036,0.3036,0.3036,0,0.2726,0.2813,0.2889,0.2903,0.2903,0.2953,0.294,0.2966,0.2976,0.2982,0.2986,0.3005,0.3015,0.303,0.3029,0.303,0.3041,0.3037,0.307,0.3073,0.3077,0.309,0.3096,0.3035,0.3035,0.3035,0.3035,0,0.2765,0.2792,0.2803,0.2853,0.286,0.2857,0.2901,0.2914,0.294,0.2963,0.2981,0.2998,0.3017,0.3021,0.3027,0.3056,0.305,0.3057,0.3069,0.3078,0.3091,0.3098,0.3032,0.3033,0.3033,0.3034,0,0,0.2707,0.281,0.2795,0.2784,0.2824,0.2822,0.2852,0.2881,0.29,0.2935,0.2949,0.2983,0.3009,0.3026,0.3038,0.3067,0.3096,0.3072,0.3074,0.3078,0.3148,0.3037,0.3033,0.3099,0.3101,0.3102,0.3139,0,0.2668,0.2708,0.2762,0.272,0.2714,0.2752,0.2766,0.2807,0.2857,0.2888,0.2956,0.2976,0.301,0.3017,0.3058,0.3081,0.3114,0.3084,0.3147,0.3149,0.3043,0.3038,0.2908,0.2921,0.3146,0.3147,0.3148,0,0.2653,0.2679,0.2676,0.2656,0.265,0.2642,0.2665,0.2683,0.2773,0.2814,0.2883,0.294,0.3004,0.303,0.3113,0.3087,0.3127,0.315,0.3152,0.3071,0.305,0.2954,0.2925,0.2776,0.3158,0.3157,0.3156,0,0.2594,0.258,0.2587,0.2577,0.2598,0.2587,0.2589,0.2658,0.2673,0.2776,0.2805,0.2907,0.2944,0.3028,0.3105,0.3111,0.3179,0.3196,0.3138,0.313,0.3045,0.3027,0.2876,0.3266,0.3266,0.3266,0.3266,0,0.2549,0.2508,0.2555,0.255,0.2493,0.2523,0.2499,0.2538,0.2601,0.2613,0.2757,0.2793,0.2945,0.3013,0.3093,0.3119,0.318,0.3139,0.3133,0.3025,0.3005,0.2894,0.2894,0.3267,0.3267,0.3267,0.3266,0,0.2485,0.2536,0.2493,0.2497,0.2479,0.2435,0.2412,0.2409,0.249,0.2517,0.255,0.2702,0.2793,0.2922,0.3042,0.307,0.3034,0.3126,0.2975,0.295,0.2733,0.2739,0.2614,0.2578,0.3067,0.3064,0.3062,0,0.247,0.2467,0.244,0.2392,0.2381,0.2329,0.23,0.235,0.2359,0.2452,0.2458,0.2573,0.2654,0.278,0.2866,0.2967,0.2928,0.287,0.2863,0.2688,0.2693,0.2644,0.2622,0.2743,0.2739,0.2735,0.2732,0,0.2381,0.2387,0.2364,0.2289,0.2232,0.2182,0.215,0.2151,0.2221,0.2259,0.2316,0.2388,0.2522,0.2578,0.269,0.2735,0.2703,0.2791,0.2663,0.2463,0.2354,0.2325,0.2745,0.2699,0.2702,0.2704,0.2706,0.2707,0.227,0.2225,0.2206,0.2126,0.207,0.2031,0.1989,0.1996,0.2003,0.2035,0.2138,0.2179,0.2287,0.244,0.2449,0.2334,0.2479,0.2289,0.2325,0.23,0.2204,0.2524,0.243,0.2432,0.2433,0.2435,0.2436,0,0.2084,0.2081,0.202,0.1938,0.1868,0.1891,0.1874,0.1847,0.1836,0.1862,0.1894,0.1913,0.1939,0.1993,0.1971,0.189,0.1868,0.1828,0.1738,0.176,0.207,0.1987,0.1726,0.1726,0.1726,0.1726,0.1727,0.1727,0.198,0.1897,0.1904,0.1765,0.1721,0.1632,0.1629,0.1618,0.1625,0.1568,0.1541,0.1577,0.1648,0.1595,0.1468,0.1447,0.1395,0.1341,0.1403,0.1597,0.1642,0.1685,0.1598,0.126,0.126,0.1002,0.1,0.0999]},{"header":{"parameterUnit":"m.s-1","parameterCategory":2,"la1":30.2991,"la2":30.254,"lo1":-89.0895,"lo2":-89.0444,"dy":0.0017,"dx":0.0017,"nx":28,"ny":28,"refTime":"2024-07-12T03:00:00:Z","depth":"0","parameterNumber":3,"parameterNumberName":"V-component_of_CURRENTS"},"data":[0,0,0,0,0,0,0,0,0,0,0,0,0,0,0,0,0,0,0,0,0,0,0,0,0,0,0,0,0,0,0,0,0,0,0,0,0,0,0,0,0,0,0,0,0,0,0,0,0,0,0,0,0,0,0,0,0,0,0.0117,0.0117,0,0.0173,0.0174,0.0175,0.0202,0.0202,0.0201,0.0201,0.0255,0.0257,0.0258,0,0,0,0,0,0,0,0,0,0,0,0,0,0.0107,0.0107,0.0117,0.0117,0.0118,0.0173,0.0174,0.0175,0.0202,0.0202,0.0201,0.0201,0.0255,0.0257,0.0258,0,0,0,0,0,0,0,0,0,0,0,0,0,0.0132,0.0106,0.0117,0.0138,0.014,0.0173,0.0174,0.0175,0.0202,0.0202,0.0201,0.0201,0.0254,0.0256,0.0259,0.0274,0,0,0.0265,0.0266,0,0,0,0,0,0,0,0,0.0131,0.0133,0.0134,0.0136,0.0139,0.018,0.0191,0.0208,0.0202,0.0179,0.0201,0.0201,0.023,0.0234,0.0245,0.0277,0.0279,0.0266,0.0267,0.0268,0.0269,0,0,0,0,0,0,0,0.0129,0.0131,0.0139,0.0135,0.0138,0.017,0.0173,0.0194,0.0204,0.0181,0.0183,0.0189,0.0231,0.0243,0.0247,0.028,0.0266,0.0268,0.0269,0.027,0.0342,0.0342,0,0,0,0,0,0,0.0117,0.0128,0.0138,0.0141,0.0134,0.017,0.0174,0.0167,0.0204,0.021,0.0189,0.019,0.0239,0.0244,0.0249,0.0285,0.0268,0.027,0.0271,0.0341,0.0342,0.0343,0,0,0,0,0,0,0.0117,0.0117,0.0135,0.0137,0.0141,0.017,0.0163,0.0168,0.0183,0.021,0.0215,0.0198,0.0239,0.0246,0.0267,0.0286,0.0271,0.0273,0.0341,0.0342,0.0342,0.0347,0,0,0,0,0,0,0.0116,0.0116,0.0112,0.0135,0.0141,0.0163,0.0163,0.017,0.0187,0.0189,0.022,0.0225,0.024,0.0263,0.0269,0.0289,0.0275,0.034,0.0341,0.0342,0.0346,0.0348,0.0349,0,0,0,0,0,0.0115,0.0119,0.0111,0.0112,0.0132,0.0163,0.017,0.0191,0.0187,0.0201,0.0213,0.0224,0.0275,0.0265,0.0272,0.0293,0.0339,0.0341,0.0342,0.0345,0.0347,0.0349,0,0,0,0,0,0,0.0118,0.0123,0.0114,0.0119,0.0138,0.0168,0.0186,0.0191,0.0212,0.0213,0.0228,0.0234,0.0264,0.0274,0.0264,0.0317,0.0311,0.0313,0.0311,0.0313,0.0315,0.034,0.0277,0,0,0,0,0,0.0111,0.0115,0.0125,0.0132,0.0138,0.0157,0.0172,0.0185,0.0205,0.0215,0.0229,0.0249,0.0275,0.0288,0.0312,0.0337,0.0345,0.0356,0.0358,0.0359,0.0384,0.0391,0.0395,0.0347,0.0347,0.0347,0,0,0.0116,0.012,0.0122,0.0133,0.0148,0.0173,0.0167,0.0195,0.0222,0.0217,0.0251,0.0256,0.0282,0.0313,0.0328,0.0324,0.0375,0.0361,0.0362,0.0387,0.0392,0.0397,0.0401,0.0348,0.0348,0.0347,0,0,0.0136,0.0127,0.0137,0.0154,0.0174,0.019,0.0196,0.0218,0.0234,0.0262,0.0265,0.028,0.0315,0.0337,0.0354,0.038,0.0383,0.0382,0.0413,0.0418,0.0422,0.0426,0.0432,0.0436,0.0382,0.0382,0.0382,0,0.0129,0.0148,0.0149,0.0168,0.0188,0.0197,0.0222,0.0247,0.0274,0.0291,0.0278,0.0327,0.0336,0.0385,0.039,0.0387,0.0385,0.0401,0.042,0.0424,0.0428,0.0433,0.0438,0.0383,0.0383,0.0383,0.0383,0,0.0163,0.0178,0.0192,0.0212,0.0235,0.0262,0.0289,0.031,0.032,0.0341,0.0381,0.0385,0.0419,0.0415,0.0413,0.0448,0.0436,0.0418,0.0413,0.0433,0.0437,0.0442,0.0383,0.0383,0.0383,0.0383,0,0,0.0128,0.0196,0.0199,0.0221,0.0259,0.0283,0.0329,0.0373,0.0408,0.0425,0.0469,0.0494,0.0488,0.0507,0.0497,0.0497,0.0506,0.0468,0.0468,0.0473,0.0514,0.0486,0.0489,0.048,0.0482,0.0483,0.0502,0,0.0143,0.0199,0.0227,0.0282,0.031,0.0337,0.0381,0.0425,0.0456,0.05,0.0518,0.0553,0.0528,0.0532,0.0535,0.0515,0.0521,0.0503,0.0498,0.0499,0.047,0.0494,0.0506,0.0523,0.0507,0.0508,0.0508,0,0.0156,0.0195,0.0253,0.0319,0.0331,0.0365,0.0431,0.0472,0.054,0.0563,0.0604,0.0619,0.0645,0.0606,0.0608,0.0592,0.0567,0.0544,0.0543,0.0527,0.0481,0.0504,0.0532,0.0517,0.0516,0.0515,0.0515,0,0.0138,0.0208,0.0258,0.0281,0.0355,0.0383,0.042,0.0488,0.053,0.0602,0.0635,0.0675,0.0685,0.0673,0.0636,0.062,0.0623,0.0594,0.0554,0.0551,0.057,0.0567,0.0587,0.0605,0.0605,0.0605,0.0605,0,0.014,0.0174,0.0255,0.0279,0.0338,0.0382,0.0442,0.049,0.0559,0.0619,0.0661,0.0706,0.0697,0.0702,0.0666,0.0629,0.065,0.058,0.0561,0.057,0.0566,0.056,0.0523,0.0606,0.0605,0.0605,0.0605,0,0.0109,0.0166,0.0223,0.0304,0.0332,0.0371,0.0451,0.0497,0.0557,0.0636,0.066,0.0727,0.0731,0.0718,0.0692,0.0659,0.0605,0.0607,0.0619,0.0601,0.0542,0.0504,0.0457,0.0468,0.0579,0.0579,0.0578,0,0.0102,0.0128,0.0227,0.0269,0.0305,0.0367,0.0415,0.0491,0.0546,0.0648,0.069,0.0726,0.0766,0.0731,0.0674,0.0628,0.0588,0.0603,0.058,0.056,0.0504,0.0442,0.0451,0.0605,0.0605,0.0605,0.0605,0,0.008,0.0115,0.0173,0.0252,0.0314,0.0389,0.0463,0.0508,0.06,0.0664,0.0749,0.0787,0.0765,0.0744,0.0676,0.0631,0.0576,0.0597,0.0584,0.054,0.047,0.0464,0.0568,0.0604,0.0604,0.0604,0.0604,0.0604,0.0061,0.0104,0.018,0.0258,0.033,0.0419,0.0475,0.0553,0.0644,0.0755,0.0779,0.0845,0.0825,0.0737,0.0665,0.0569,0.0538,0.0557,0.0518,0.0461,0.0458,0.0555,0.0557,0.0557,0.0557,0.0556,0.0556,0,0.0054,0.0117,0.0181,0.0296,0.0364,0.0408,0.0519,0.0579,0.068,0.0769,0.0839,0.0885,0.0826,0.0746,0.0608,0.0526,0.0488,0.0492,0.0437,0.0458,0.0567,0.0557,0.0551,0.0551,0.0551,0.0551,0.0551,0.0551,0.0062,0.013,0.0182,0.0312,0.038,0.0482,0.0547,0.0634,0.0713,0.0817,0.0876,0.093,0.0926,0.0656,0.0504,0.0466,0.0408,0.0356,0.0352,0.0453,0.0457,0.0461,0.0446,0.0417,0.0417,0.0278,0.0277,0.0276]}],[{"header":{"parameterUnit":"m.s-1","parameterCategory":2,"la1":30.2991,"la2":30.254,"lo1":-89.0895,"lo2":-89.0444,"dy":0.0017,"dx":0.0017,"nx":28,"ny":28,"refTime":"2024-07-12T03:00:00:Z","depth":"2","parameterNumber":2,"parameterNumberName":"U-component_of_CURRENTS"},"data":[0,0,0,0,0,0,0,0,0,0,0,0,0,0,0,0,0,0,0,0,0,0,0,0,0,0,0,0,0,0,0,0,0,0,0,0,0,0,0,0,0,0,0,0,0,0,0,0,0,0,0,0,0,0,0,0,0,0,0.0581,0.0583,0,0.0666,0.0666,0.0666,0.0736,0.0738,0.0739,0.0741,0.0999,0.1004,0.1009,0,0,0,0,0,0,0,0,0,0,0,0,0,0.0632,0.0629,0.0581,0.0583,0.0585,0.0666,0.0666,0.0666,0.0735,0.0738,0.074,0.0742,0.0997,0.1003,0.1009,0,0,0,0,0,0,0,0,0,0,0,0,0,0.0641,0.0628,0.058,0.0638,0.0645,0.0666,0.0666,0.0666,0.0735,0.0738,0.074,0.0743,0.0995,0.1002,0.101,0.1003,0,0,0.1034,0.1037,0,0,0,0,0,0,0,0,0.064,0.0637,0.0628,0.0634,0.0642,0.0704,0.078,0.0792,0.0734,0.0688,0.0741,0.0744,0.0922,0.0936,0.0926,0.1015,0.1026,0.1034,0.1039,0.1042,0.1045,0,0,0,0,0,0,0,0.0639,0.0635,0.0602,0.063,0.0639,0.0714,0.0715,0.0781,0.0783,0.0692,0.0701,0.0728,0.0926,0.0918,0.0933,0.103,0.1034,0.1041,0.1046,0.1049,0.1141,0.1139,0,0,0,0,0,0,0.064,0.0633,0.06,0.0606,0.0661,0.0711,0.0712,0.0671,0.0778,0.0799,0.0726,0.0731,0.0904,0.0924,0.0943,0.1126,0.1042,0.105,0.1054,0.1143,0.114,0.1138,0,0,0,0,0,0,0.064,0.0633,0.0597,0.0636,0.0638,0.0707,0.0661,0.0672,0.0734,0.0804,0.0827,0.0787,0.0906,0.0932,0.1057,0.113,0.1053,0.106,0.1146,0.1142,0.1139,0.1375,0,0,0,0,0,0,0.0639,0.0631,0.0602,0.0633,0.0637,0.0625,0.066,0.0672,0.0748,0.0757,0.0863,0.0885,0.0911,0.1045,0.1064,0.114,0.1066,0.1149,0.1144,0.114,0.137,0.138,0.1389,0,0,0,0,0,0.064,0.0583,0.0597,0.0596,0.059,0.0626,0.0633,0.0686,0.0749,0.0756,0.0855,0.0885,0.1028,0.1053,0.1075,0.1155,0.1151,0.1145,0.1141,0.1366,0.1378,0.1389,0,0,0,0,0,0,0.0651,0.0587,0.0603,0.0548,0.0598,0.0643,0.0658,0.0722,0.0798,0.0836,0.0914,0.0941,0.1084,0.1039,0.1064,0.1138,0.1071,0.107,0.1233,0.1245,0.1255,0.1184,0.1073,0,0,0,0,0,0.0624,0.0522,0.056,0.0527,0.0549,0.0622,0.0652,0.0703,0.078,0.0817,0.0921,0.0982,0.1058,0.1098,0.1152,0.1214,0.1132,0.1241,0.1251,0.1261,0.1201,0.119,0.1197,0.1122,0.1122,0.1122,0,0,0.062,0.0582,0.053,0.0518,0.0557,0.0584,0.0644,0.0704,0.0744,0.0837,0.0956,0.1071,0.1087,0.118,0.1226,0.117,0.1231,0.1255,0.1266,0.1198,0.1186,0.1195,0.1202,0.1119,0.1119,0.112,0,0,0.0581,0.0539,0.0459,0.0493,0.0554,0.0588,0.0627,0.0727,0.0779,0.0881,0.0992,0.1133,0.1208,0.127,0.1292,0.1355,0.1318,0.1371,0.1357,0.1353,0.1361,0.1367,0.127,0.1266,0.1338,0.1338,0.1338,0,0.0601,0.0533,0.0469,0.0463,0.0527,0.0601,0.065,0.067,0.0818,0.087,0.0919,0.113,0.122,0.133,0.137,0.1393,0.1343,0.136,0.1377,0.1381,0.1383,0.1282,0.1274,0.1349,0.1348,0.1346,0.1345,0,0.0527,0.0525,0.0517,0.0493,0.0517,0.0597,0.0636,0.0696,0.0795,0.0847,0.1017,0.1156,0.1246,0.1336,0.139,0.1477,0.1424,0.1448,0.1383,0.1408,0.1295,0.1284,0.1364,0.136,0.1357,0.1354,0,0,0.0529,0.0468,0.0497,0.0536,0.0587,0.0618,0.0636,0.0705,0.0741,0.0873,0.0951,0.1152,0.1252,0.1274,0.1418,0.1449,0.1496,0.1463,0.1458,0.142,0.1426,0.1405,0.1388,0.1569,0.1568,0.1567,0.1343,0,0.0574,0.0543,0.0522,0.0609,0.0638,0.0693,0.068,0.0719,0.0784,0.0851,0.0973,0.1113,0.1205,0.1344,0.1375,0.1495,0.1473,0.1548,0.135,0.134,0.1371,0.1378,0.1327,0.1126,0.1331,0.1328,0.1327,0,0.0571,0.0566,0.0573,0.0663,0.0687,0.0735,0.0793,0.0811,0.0823,0.0865,0.0965,0.1055,0.117,0.1253,0.1297,0.1352,0.1365,0.1418,0.1411,0.1284,0.1299,0.1123,0.1095,0.1305,0.1307,0.1309,0.131,0,0.058,0.0671,0.0671,0.0702,0.0717,0.0781,0.0862,0.0848,0.0868,0.0931,0.0961,0.1028,0.1133,0.1135,0.122,0.1265,0.1227,0.1275,0.1225,0.1219,0.1066,0.105,0.124,0.124,0.1241,0.1242,0.1242,0,0.0624,0.0709,0.0698,0.0705,0.0808,0.0816,0.088,0.095,0.0963,0.0985,0.1019,0.1064,0.113,0.1125,0.1143,0.1119,0.1119,0.1181,0.117,0.1141,0.1135,0.1198,0.1196,0.1233,0.1235,0.1237,0.1238,0,0.0616,0.0599,0.0656,0.0715,0.078,0.0857,0.099,0.0988,0.1014,0.1055,0.1095,0.1096,0.1093,0.1086,0.1099,0.1048,0.1027,0.102,0.094,0.0926,0.1012,0.1024,0.087,0.0867,0.0865,0.0864,0.0862,0,0.0604,0.0554,0.0637,0.0709,0.0792,0.0899,0.0927,0.1021,0.1029,0.1076,0.1098,0.1126,0.1085,0.0997,0.0976,0.0879,0.0978,0.0769,0.0859,0.0974,0.0979,0.0994,0.1008,0.0718,0.0715,0.0713,0.0711,0,0.0609,0.0582,0.0646,0.0676,0.0797,0.0869,0.1002,0.1014,0.1049,0.1071,0.1103,0.1092,0.1023,0.0888,0.0783,0.0764,0.0773,0.0726,0.0857,0.0858,0.0825,0.0832,0.0851,0.0693,0.0695,0.0696,0.0697,0.0698,0.0661,0.0707,0.0666,0.0768,0.086,0.0889,0.0937,0.0983,0.1004,0.1039,0.1038,0.0965,0.0801,0.0626,0.0596,0.0641,0.0678,0.0626,0.0634,0.0644,0.0705,0.0676,0.052,0.052,0.0521,0.0522,0.0522,0,0.0727,0.075,0.0766,0.0875,0.0909,0.0927,0.0971,0.0945,0.0975,0.0956,0.0941,0.0692,0.0538,0.0492,0.0498,0.0449,0.0513,0.0475,0.0515,0.053,0.0544,0.0606,0.039,0.039,0.039,0.0391,0,0,0.0772,0.0784,0.0763,0.0865,0.093,0.0946,0.0955,0.0933,0.089,0.0792,0.071,0.0556,0.0445,0.0355,0.0326,0.0378,0.0498,0.0422,0.052,0.0585,0.0601,0.0608,0.0716,0,0,0,0,0]},{"header":{"parameterUnit":"m.s-1","parameterCategory":2,"la1":30.2991,"la2":30.254,"lo1":-89.0895,"lo2":-89.0444,"dy":0.0017,"dx":0.0017,"nx":28,"ny":28,"refTime":"2024-07-12T03:00:00:Z","depth":"2","parameterNumber":3,"parameterNumberName":"V-component_of_CURRENTS"},"data":[0,0,0,0,0,0,0,0,0,0,0,0,0,0,0,0,0,0,0,0,0,0,0,0,0,0,0,0,0,0,0,0,0,0,0,0,0,0,0,0,0,0,0,0,0,0,0,0,0,0,0,0,0,0,0,0,0,0,-0.0294,-0.0294,0,-0.0362,-0.0362,-0.0363,-0.0429,-0.043,-0.0431,-0.0432,-0.0392,-0.039,-0.0388,0,0,0,0,0,0,0,0,0,0,0,0,0,-0.0141,-0.0144,-0.0294,-0.0295,-0.0295,-0.0361,-0.0362,-0.0363,-0.0429,-0.043,-0.0431,-0.0433,-0.0393,-0.039,-0.0388,0,0,0,0,0,0,0,0,0,0,0,0,0,-0.0208,-0.0145,-0.0293,-0.0337,-0.0341,-0.0361,-0.0362,-0.0363,-0.0429,-0.043,-0.0432,-0.0433,-0.0393,-0.0391,-0.0388,-0.0342,0,0,-0.0379,-0.0378,0,0,0,0,0,0,0,0,-0.0204,-0.0213,-0.033,-0.0334,-0.0339,-0.0389,-0.0294,-0.0351,-0.0429,-0.0395,-0.0432,-0.0434,-0.038,-0.0379,-0.0389,-0.034,-0.0339,-0.0379,-0.0377,-0.0376,-0.0375,0,0,0,0,0,0,0,-0.0199,-0.021,-0.032,-0.033,-0.0336,-0.0326,-0.0337,-0.0305,-0.0376,-0.0398,-0.0403,-0.0411,-0.0382,-0.0392,-0.0388,-0.0338,-0.0379,-0.0376,-0.0374,-0.0373,-0.0361,-0.0362,0,0,0,0,0,0,-0.0196,-0.0206,-0.0318,-0.0322,-0.0274,-0.0328,-0.0341,-0.0371,-0.0379,-0.0383,-0.041,-0.0414,-0.0396,-0.0392,-0.0387,-0.0344,-0.0376,-0.0373,-0.0371,-0.0359,-0.0361,-0.0363,0,0,0,0,0,0,-0.0192,-0.0206,-0.0315,-0.0264,-0.0278,-0.033,-0.0363,-0.0372,-0.039,-0.039,-0.0392,-0.0421,-0.0397,-0.0391,-0.0375,-0.0342,-0.0372,-0.0369,-0.0358,-0.036,-0.0362,-0.025,0,0,0,0,0,0,-0.0188,-0.0205,-0.0223,-0.0265,-0.0281,-0.0323,-0.0362,-0.0372,-0.0393,-0.0399,-0.0398,-0.0397,-0.0398,-0.038,-0.0373,-0.0339,-0.0367,-0.0356,-0.0359,-0.0361,-0.0252,-0.0248,-0.0244,0,0,0,0,0,-0.0183,-0.0203,-0.0225,-0.0238,-0.0307,-0.0322,-0.0329,-0.0368,-0.0392,-0.0392,-0.0405,-0.0397,-0.0393,-0.0377,-0.0369,-0.0333,-0.0355,-0.0358,-0.0361,-0.0253,-0.0248,-0.0244,0,0,0,0,0,0,-0.0154,-0.0213,-0.0237,-0.0279,-0.0296,-0.0334,-0.0342,-0.0364,-0.0377,-0.0383,-0.0389,-0.0387,-0.0356,-0.0382,-0.0365,-0.0352,-0.0382,-0.0383,-0.0303,-0.0299,-0.0295,-0.029,-0.0364,0,0,0,0,0,-0.0154,-0.0177,-0.0227,-0.025,-0.0266,-0.0301,-0.0314,-0.0336,-0.0354,-0.0363,-0.036,-0.0374,-0.0362,-0.0361,-0.035,-0.033,-0.0349,-0.032,-0.0316,-0.0312,-0.0311,-0.0328,-0.0324,-0.0373,-0.0373,-0.0373,0,0,-0.0147,-0.018,-0.0195,-0.0243,-0.0265,-0.0271,-0.0313,-0.0327,-0.0328,-0.0349,-0.0343,-0.0335,-0.0353,-0.0329,-0.0323,-0.0346,-0.0306,-0.0316,-0.0311,-0.0313,-0.0331,-0.0325,-0.032,-0.0375,-0.0375,-0.0374,0,0,-0.0126,-0.0177,-0.0186,-0.0199,-0.0228,-0.0245,-0.0248,-0.0279,-0.0298,-0.0295,-0.0304,-0.0289,-0.0291,-0.0284,-0.0286,-0.0265,-0.0271,-0.0274,-0.025,-0.0266,-0.026,-0.0256,-0.0246,-0.0241,-0.0288,-0.0288,-0.0288,0,-0.0117,-0.014,-0.0184,-0.0188,-0.0191,-0.0231,-0.0225,-0.0245,-0.0262,-0.0265,-0.029,-0.0279,-0.0272,-0.024,-0.0237,-0.0245,-0.0259,-0.0246,-0.0254,-0.025,-0.0248,-0.0239,-0.0236,-0.0283,-0.0284,-0.0284,-0.0285,0,-0.0095,-0.0114,-0.0116,-0.0136,-0.014,-0.0138,-0.017,-0.0174,-0.02,-0.0219,-0.0203,-0.0205,-0.0207,-0.0198,-0.0204,-0.0176,-0.0189,-0.0223,-0.0246,-0.0234,-0.0228,-0.0226,-0.0276,-0.0278,-0.0279,-0.028,0,0,-0.0103,-0.0098,-0.0107,-0.0094,-0.0112,-0.0111,-0.0111,-0.012,-0.0118,-0.0143,-0.0134,-0.0119,-0.0129,-0.0135,-0.0131,-0.0143,-0.0108,-0.0174,-0.0177,-0.013,-0.0125,-0.0033,-0.0023,-0.0141,-0.0141,-0.0141,-0.0115,0,-0.0079,-0.0055,-0.0063,-0.0035,-0.0031,-0.0047,-0.0043,-0.0053,-0.0071,-0.0069,-0.0094,-0.0074,-0.0107,-0.0084,-0.0104,-0.0104,-0.0105,-0.0111,-0.0175,-0.0176,-0.0067,-0.0018,-0.0078,-0.0052,-0.0114,-0.0114,-0.0114,0,-0.0078,-0.006,-0.0025,0.0012,0.0011,0.0029,0.004,0.0042,0.0026,0.0014,0.0007,-0.0009,-0.0002,-0.004,-0.0066,-0.0071,-0.0088,-0.0102,-0.0103,-0.0057,-0.0082,-0.0085,-0.0047,-0.0111,-0.0111,-0.0111,-0.0112,0,-0.0073,-0.0039,0.0001,0.001,0.0037,0.0054,0.0072,0.0064,0.0073,0.0079,0.0094,0.0065,0.0072,0.002,-0.0006,-0.0042,-0.003,-0.0092,-0.0023,-0.0017,-0.0101,-0.0101,-0.0103,-0.0103,-0.0103,-0.0103,-0.0103,0,-0.006,-0.0043,0.0009,0.0023,0.0077,0.0077,0.0116,0.0133,0.0143,0.017,0.0143,0.0163,0.0084,0.0077,0.0024,0.003,-0.0013,0.0007,0.0002,-0.0061,-0.0058,-0.0153,-0.0159,-0.0102,-0.0102,-0.0102,-0.0103,0,-0.0091,-0.005,-0.0009,0.0046,0.0078,0.0104,0.0166,0.0183,0.0199,0.0241,0.0253,0.0239,0.0218,0.0171,0.0117,0.0099,0.0081,0.0098,0.0058,0.005,0.0088,0.0086,0.0149,0.0153,0.0156,0.0158,0.016,0,-0.0101,-0.0085,0.0005,0.0054,0.0083,0.0132,0.0167,0.0207,0.0233,0.0285,0.031,0.032,0.0336,0.0319,0.0243,0.0203,0.0169,0.0188,0.0115,0.0129,0.0116,0.011,0.0105,0.0039,0.004,0.0041,0.0042,0,-0.0125,-0.0099,-0.0038,0.0047,0.0114,0.0185,0.0247,0.0279,0.0316,0.0367,0.043,0.0459,0.0425,0.0347,0.0331,0.0292,0.0184,0.0209,0.0213,0.0014,0.0035,0.002,0.0016,0.0049,0.0048,0.0047,0.0047,0.0047,-0.014,-0.0076,0.0003,0.0079,0.016,0.0238,0.0292,0.0353,0.0425,0.0501,0.0493,0.0522,0.04,0.0341,0.0296,0.0263,0.0257,0.0217,0.0209,0.0201,0.0213,0.0242,0.0297,0.0298,0.0298,0.0299,0.0299,0,-0.0123,-0.0035,0.0033,0.016,0.0221,0.0256,0.035,0.0398,0.0496,0.0539,0.0592,0.045,0.0388,0.0294,0.0231,0.0228,0.0167,0.0232,0.0103,0.0097,0.0092,0.0093,0.0147,0.0147,0.0146,0.0146,0,0,-0.009,0.0,0.0051,0.0182,0.0258,0.0361,0.0416,0.0498,0.0543,0.0583,0.0569,0.0508,0.0388,0.0278,0.0205,0.019,0.0171,0.0203,0.0325,0.0176,0.0172,0.0082,0.0079,0,0,0,0,0]}],[{"header":{"parameterUnit":"m.s-1","parameterCategory":2,"la1":30.2991,"la2":30.254,"lo1":-89.0895,"lo2":-89.0444,"dy":0.0017,"dx":0.0017,"nx":28,"ny":28,"refTime":"2024-07-12T03:00:00:Z","depth":"4","parameterNumber":2,"parameterNumberName":"U-component_of_CURRENTS"},"data":[0,0,0,0,0,0,0,0,0,0,0,0,0,0,0,0,0,0,0,0,0,0,0,0,0,0,0,0,0,0,0,0,0,0,0,0,0,0,0,0,0,0,0,0,0,0,0,0,0,0,0,0,0,0,0,0,0,0,-0.0657,-0.0658,0,-0.07,-0.07,-0.0699,-0.0702,-0.0702,-0.0703,-0.0703,-0.0758,-0.0759,-0.076,0,0,0,0,0,0,0,0,0,0,0,0,0,-0.06,-0.06,-0.0656,-0.0658,-0.0659,-0.07,-0.07,-0.0699,-0.0702,-0.0702,-0.0703,-0.0703,-0.0757,-0.0759,-0.076,0,0,0,0,0,0,0,0,0,0,0,0,0,-0.0624,-0.06,-0.0656,-0.0671,-0.0673,-0.07,-0.07,-0.0699,-0.0702,-0.0702,-0.0703,-0.0703,-0.0757,-0.0759,-0.0761,-0.0765,0,0,-0.0766,-0.0767,0,0,0,0,0,0,0,0,-0.0623,-0.0625,-0.0668,-0.067,-0.0673,-0.0703,-0.07,-0.0725,-0.0702,-0.0683,-0.0703,-0.0703,-0.0745,-0.0748,-0.0744,-0.0767,-0.077,-0.0766,-0.0767,-0.0768,-0.0769,0,0,0,0,0,0,0,-0.0621,-0.0624,-0.0665,-0.0669,-0.0672,-0.0684,-0.0687,-0.0704,-0.0706,-0.0685,-0.0687,-0.0704,-0.0746,-0.0742,-0.0746,-0.0771,-0.0766,-0.0768,-0.0769,-0.077,-0.0886,-0.0888,0,0,0,0,0,0,-0.063,-0.0622,-0.0664,-0.0668,-0.0657,-0.0686,-0.0688,-0.0686,-0.0705,-0.0711,-0.0704,-0.0704,-0.0739,-0.0743,-0.0748,-0.086,-0.0768,-0.077,-0.0771,-0.0884,-0.0886,-0.0888,0,0,0,0,0,0,-0.0628,-0.0632,-0.0663,-0.0653,-0.0659,-0.0687,-0.0684,-0.0687,-0.0708,-0.0721,-0.0725,-0.0726,-0.0739,-0.0745,-0.0775,-0.0859,-0.0771,-0.0773,-0.0882,-0.0885,-0.0887,-0.1018,0,0,0,0,0,0,-0.0626,-0.0631,-0.0628,-0.0653,-0.066,-0.0697,-0.0685,-0.0688,-0.0721,-0.0722,-0.0742,-0.0745,-0.074,-0.0773,-0.0777,-0.086,-0.0774,-0.0879,-0.0883,-0.0886,-0.1011,-0.1025,-0.1037,0,0,0,0,0,-0.0623,-0.0625,-0.0626,-0.0632,-0.0656,-0.0699,-0.0703,-0.0719,-0.0722,-0.0737,-0.0743,-0.0746,-0.08,-0.0775,-0.078,-0.0865,-0.0877,-0.0882,-0.0886,-0.1005,-0.1022,-0.1036,0,0,0,0,0,0,-0.0612,-0.0627,-0.0629,-0.0638,-0.0675,-0.0703,-0.0719,-0.0735,-0.075,-0.0754,-0.0756,-0.0761,-0.0819,-0.0813,-0.0785,-0.0906,-0.0846,-0.0852,-0.0935,-0.0951,-0.0963,-0.0981,-0.0776,0,0,0,0,0,-0.0605,-0.06,-0.0637,-0.0647,-0.0667,-0.0696,-0.0715,-0.0735,-0.0758,-0.0765,-0.0783,-0.0804,-0.0838,-0.0869,-0.0878,-0.0944,-0.0915,-0.1004,-0.1017,-0.1028,-0.1044,-0.1051,-0.1066,-0.0903,-0.0903,-0.0903,0,0,-0.0605,-0.0615,-0.0612,-0.0643,-0.0668,-0.0703,-0.0707,-0.0751,-0.0787,-0.077,-0.0817,-0.084,-0.0857,-0.0925,-0.0955,-0.0938,-0.1058,-0.1034,-0.1044,-0.1054,-0.1057,-0.1073,-0.1087,-0.0906,-0.0905,-0.0905,0,0,-0.0611,-0.0613,-0.0615,-0.0647,-0.0697,-0.0721,-0.0743,-0.079,-0.0816,-0.0868,-0.0871,-0.0936,-0.0979,-0.1021,-0.1046,-0.1134,-0.111,-0.1156,-0.1262,-0.127,-0.1283,-0.1295,-0.1272,-0.128,-0.1184,-0.1184,-0.1184,0,-0.0618,-0.0616,-0.063,-0.0656,-0.069,-0.0735,-0.0772,-0.0806,-0.086,-0.0903,-0.0898,-0.1007,-0.1028,-0.1132,-0.1183,-0.1169,-0.1154,-0.1207,-0.1287,-0.1298,-0.1308,-0.1282,-0.1289,-0.1191,-0.119,-0.1189,-0.1189,0,-0.0628,-0.0637,-0.0653,-0.0687,-0.0728,-0.0771,-0.0832,-0.0879,-0.0928,-0.0981,-0.1089,-0.1123,-0.1204,-0.1238,-0.1251,-0.1362,-0.1321,-0.1286,-0.125,-0.1333,-0.1299,-0.1305,-0.12,-0.1198,-0.1196,-0.1194,0,0,-0.0622,-0.0649,-0.0658,-0.0672,-0.075,-0.0783,-0.0861,-0.0952,-0.1026,-0.11,-0.1206,-0.1304,-0.1362,-0.1393,-0.1429,-0.1469,-0.1539,-0.144,-0.1437,-0.1421,-0.1543,-0.1334,-0.1319,-0.1525,-0.1527,-0.1529,-0.1489,0,-0.0632,-0.0659,-0.0686,-0.0735,-0.0758,-0.083,-0.0896,-0.099,-0.1092,-0.1205,-0.1295,-0.1397,-0.141,-0.1482,-0.1532,-0.1518,-0.1562,-0.1552,-0.1462,-0.1459,-0.1267,-0.1322,-0.1535,-0.1493,-0.1494,-0.1495,-0.1496,0,-0.064,-0.0649,-0.0692,-0.0744,-0.0767,-0.0831,-0.0966,-0.1042,-0.1215,-0.1309,-0.1456,-0.1503,-0.1612,-0.16,-0.1632,-0.1626,-0.1622,-0.1601,-0.1597,-0.1361,-0.1261,-0.1394,-0.1505,-0.1504,-0.1504,-0.1503,-0.1502,0,-0.0611,-0.0658,-0.0685,-0.0707,-0.0783,-0.0851,-0.0936,-0.1101,-0.1187,-0.1413,-0.1492,-0.1611,-0.1655,-0.1677,-0.1629,-0.1652,-0.1613,-0.1618,-0.1424,-0.1407,-0.1551,-0.1539,-0.1659,-0.1659,-0.1659,-0.1659,-0.166,0,-0.0606,-0.0627,-0.0685,-0.0699,-0.0765,-0.0858,-0.0991,-0.1112,-0.1302,-0.1392,-0.1565,-0.159,-0.1677,-0.1644,-0.1643,-0.1507,-0.1609,-0.1445,-0.1389,-0.1604,-0.1598,-0.1553,-0.1542,-0.1658,-0.1658,-0.1659,-0.1659,0,-0.0579,-0.0609,-0.0631,-0.0711,-0.0753,-0.0827,-0.1007,-0.1086,-0.1295,-0.1423,-0.1483,-0.1576,-0.1478,-0.1494,-0.1471,-0.1459,-0.1391,-0.133,-0.1529,-0.1483,-0.1194,-0.1191,-0.1136,-0.1129,-0.1122,-0.1117,-0.1112,0,-0.0563,-0.0568,-0.0626,-0.0649,-0.0705,-0.0827,-0.0887,-0.1092,-0.1151,-0.1338,-0.1329,-0.1325,-0.134,-0.1128,-0.1178,-0.1129,-0.1126,-0.1162,-0.1238,-0.1193,-0.1145,-0.1151,-0.1155,-0.1102,-0.1101,-0.1099,-0.1097,0,-0.0521,-0.0547,-0.0561,-0.0596,-0.066,-0.0708,-0.0808,-0.0832,-0.1013,-0.1192,-0.1134,-0.1134,-0.1002,-0.0937,-0.0896,-0.088,-0.1186,-0.1096,-0.1112,-0.1184,-0.1151,-0.1111,-0.1122,-0.1075,-0.1078,-0.108,-0.1081,0,-0.0496,-0.0494,-0.0504,-0.0539,-0.0587,-0.0569,-0.0635,-0.0638,-0.0715,-0.0905,-0.0832,-0.0856,-0.0902,-0.0797,-0.0748,-0.0707,-0.0728,-0.0818,-0.0849,-0.0874,-0.081,-0.0732,-0.0479,0,0,0,0,0,-0.0463,-0.0447,-0.0446,-0.0446,-0.047,-0.0503,-0.0546,-0.0595,-0.0725,-0.0632,-0.0756,-0.0626,-0.0592,-0.0577,-0.0472,-0.0623,-0.0726,-0.0512,-0.0844,-0.0951,-0.0977,-0.0927,0,0,0,0,0,0,-0.0442,-0.0439,-0.0415,-0.0352,-0.0341,-0.0347,-0.0373,-0.0445,-0.0368,-0.0513,-0.0413,-0.0616,-0.0484,-0.06,-0.0462,-0.0471,-0.0678,-0.0546,-0.0546,-0.0936,-0.096,-0.0981,-0.0938,0,0,0,0,0]},{"header":{"parameterUnit":"m.s-1","parameterCategory":2,"la1":30.2991,"la2":30.254,"lo1":-89.0895,"lo2":-89.0444,"dy":0.0017,"dx":0.0017,"nx":28,"ny":28,"refTime":"2024-07-12T03:00:00:Z","depth":"4","parameterNumber":3,"parameterNumberName":"V-component_of_CURRENTS"},"data":[0,0,0,0,0,0,0,0,0,0,0,0,0,0,0,0,0,0,0,0,0,0,0,0,0,0,0,0,0,0,0,0,0,0,0,0,0,0,0,0,0,0,0,0,0,0,0,0,0,0,0,0,0,0,0,0,0,0,0.0233,0.0233,0,0.0283,0.0284,0.0285,0.0335,0.0336,0.0336,0.0337,0.0329,0.0328,0.0328,0,0,0,0,0,0,0,0,0,0,0,0,0,0.0256,0.0255,0.0233,0.0233,0.0234,0.0283,0.0284,0.0285,0.0335,0.0336,0.0336,0.0337,0.0329,0.0329,0.0328,0,0,0,0,0,0,0,0,0,0,0,0,0,0.0272,0.0254,0.0233,0.0263,0.0266,0.0283,0.0284,0.0285,0.0335,0.0336,0.0337,0.0337,0.0329,0.0329,0.0328,0.0309,0,0,0.0325,0.0324,0,0,0,0,0,0,0,0,0.0271,0.0271,0.0258,0.0261,0.0264,0.0301,0.0289,0.0289,0.0335,0.0312,0.0337,0.0338,0.0312,0.0313,0.0325,0.0309,0.0308,0.0325,0.0324,0.0324,0.0324,0,0,0,0,0,0,0,0.027,0.027,0.0256,0.0258,0.0262,0.0299,0.0302,0.029,0.0309,0.0314,0.0317,0.0318,0.0314,0.0326,0.0325,0.0308,0.0325,0.0324,0.0323,0.0323,0.0294,0.0294,0,0,0,0,0,0,0.0253,0.0268,0.0254,0.0257,0.0266,0.0298,0.0301,0.0291,0.031,0.0313,0.0317,0.032,0.0327,0.0326,0.0325,0.0317,0.0324,0.0323,0.0322,0.0295,0.0294,0.0294,0,0,0,0,0,0,0.0253,0.0251,0.0252,0.0263,0.0265,0.0296,0.0285,0.0291,0.0308,0.0313,0.0316,0.0327,0.0328,0.0326,0.0317,0.0316,0.0323,0.0322,0.0295,0.0294,0.0294,0.0291,0,0,0,0,0,0,0.0253,0.025,0.0246,0.0261,0.0264,0.0253,0.0284,0.0292,0.0306,0.031,0.0322,0.0322,0.0328,0.0318,0.0316,0.0315,0.0321,0.0295,0.0295,0.0294,0.0291,0.029,0.029,0,0,0,0,0,0.0254,0.0246,0.0246,0.0244,0.0253,0.0252,0.0257,0.0284,0.0306,0.0304,0.0318,0.0322,0.0314,0.0317,0.0314,0.0313,0.0295,0.0295,0.0294,0.0291,0.0291,0.029,0,0,0,0,0,0,0.0249,0.025,0.0251,0.0241,0.024,0.0259,0.0267,0.0282,0.0295,0.0302,0.0314,0.0314,0.0304,0.0306,0.0309,0.0304,0.0307,0.0306,0.0306,0.0305,0.0304,0.032,0.032,0,0,0,0,0,0.0243,0.0235,0.0238,0.0224,0.0228,0.0246,0.0254,0.0266,0.0275,0.0284,0.0289,0.0298,0.0299,0.03,0.0294,0.0289,0.0318,0.0288,0.0287,0.0287,0.0298,0.0357,0.0364,0.0292,0.0292,0.0292,0,0,0.0229,0.0233,0.0224,0.0222,0.023,0.0216,0.0254,0.0257,0.024,0.0277,0.0263,0.0286,0.0294,0.0291,0.0288,0.0295,0.0317,0.0286,0.0286,0.0297,0.0357,0.0365,0.0371,0.0292,0.0292,0.0292,0,0,0.0203,0.0207,0.0196,0.0191,0.0196,0.0201,0.0198,0.0212,0.022,0.0208,0.0237,0.0262,0.0251,0.0272,0.0278,0.0267,0.0305,0.0269,0.0286,0.0343,0.035,0.0356,0.0385,0.0395,0.0277,0.0277,0.0277,0,0.0192,0.0172,0.019,0.0176,0.0165,0.0188,0.0164,0.0167,0.0172,0.017,0.0194,0.0222,0.0239,0.0251,0.0275,0.0264,0.0308,0.0289,0.0344,0.0352,0.0359,0.0387,0.0397,0.0277,0.0277,0.0277,0.0277,0,0.0152,0.0137,0.0131,0.0112,0.0101,0.0086,0.0083,0.0075,0.0091,0.0099,0.0114,0.0165,0.0196,0.0208,0.0251,0.0307,0.0323,0.0332,0.0351,0.0366,0.0394,0.0405,0.0276,0.0277,0.0277,0.0277,0,0,0.0122,0.0107,0.0103,0.0084,0.0068,0.0052,0.0017,-0.0002,-0.0022,0.0016,0.0015,0.0077,0.0149,0.0166,0.0228,0.0301,0.0399,0.0365,0.0368,0.0401,0.0529,0.0359,0.0355,0.0441,0.0443,0.0445,0.0523,0,0.0086,0.0051,0.0048,-0.0007,-0.0026,-0.0033,-0.0072,-0.0089,-0.0086,-0.0083,-0.0004,0.0027,0.0116,0.0171,0.0258,0.0357,0.0433,0.0377,0.0504,0.0507,0.0361,0.0363,0.0452,0.0531,0.0534,0.0536,0.0537,0,0.0047,0.0031,-0.0018,-0.0063,-0.0073,-0.011,-0.0162,-0.0188,-0.0187,-0.0164,-0.0099,-0.0036,0.0088,0.0166,0.0355,0.0329,0.0449,0.0524,0.0528,0.0382,0.0356,0.0518,0.0557,0.0556,0.0554,0.0553,0.0552,0,0.0019,-0.002,-0.0059,-0.0077,-0.0124,-0.0156,-0.0181,-0.0214,-0.0238,-0.0188,-0.0175,-0.0053,0.0026,0.0195,0.0347,0.0394,0.0519,0.0585,0.053,0.0519,0.0655,0.0648,0.0727,0.0727,0.0727,0.0727,0.0727,0,-0.0019,-0.0052,-0.0073,-0.0102,-0.0165,-0.018,-0.0247,-0.0255,-0.0263,-0.0286,-0.0183,-0.0166,0.0055,0.0134,0.0312,0.0408,0.0489,0.0529,0.0528,0.0646,0.0637,0.0662,0.0653,0.073,0.0729,0.0729,0.0728,0,-0.0052,-0.0063,-0.0112,-0.0158,-0.0182,-0.0222,-0.0288,-0.0332,-0.0315,-0.0333,-0.0298,-0.0226,-0.0123,0.0011,0.0231,0.0319,0.0447,0.0462,0.0524,0.0525,0.0439,0.0429,0.0462,0.0457,0.0452,0.0449,0.0446,0,-0.0071,-0.0097,-0.0156,-0.0194,-0.0219,-0.0279,-0.0334,-0.0348,-0.0373,-0.0382,-0.0377,-0.0326,-0.0263,-0.0102,0.0042,0.0253,0.0298,0.0365,0.0481,0.0416,0.0413,0.0411,0.0407,0.0438,0.0437,0.0436,0.0435,0,-0.011,-0.0128,-0.0163,-0.0234,-0.0293,-0.0371,-0.0422,-0.043,-0.0439,-0.0443,-0.0412,-0.0348,-0.0301,-0.0151,-0.006,0.0119,0.0326,0.0321,0.0336,0.0446,0.0388,0.0388,0.039,0.0419,0.0421,0.0423,0.0424,0,-0.0136,-0.0165,-0.0205,-0.0266,-0.0353,-0.0422,-0.0447,-0.0459,-0.0475,-0.0439,-0.0454,-0.0382,-0.0341,-0.023,-0.0129,-0.0026,0.0076,0.0197,0.0221,0.024,0.0129,0.002,-0.0066,0,0,0,0,0,-0.0157,-0.0182,-0.024,-0.03,-0.0387,-0.044,-0.0499,-0.0504,-0.0499,-0.0469,-0.0444,-0.0391,-0.0287,-0.0259,-0.0169,-0.02,0.0074,-0.0095,0.0223,0.0332,0.035,0.0239,0,0,0,0,0,0,-0.0172,-0.0216,-0.0232,-0.0318,-0.0369,-0.0466,-0.0505,-0.0503,-0.0462,-0.0442,-0.0378,-0.0365,-0.026,-0.0325,-0.0164,-0.0148,0.0069,-0.0055,-0.0053,0.0321,0.0338,0.0352,0.0245,0,0,0,0,0]}]]